TimeEDT,TemperatureF,Dew PointF,Humidity,Sea Level PressureIn,VisibilityMPH,Wind Direction,Wind SpeedMPH,Gust SpeedMPH,PrecipitationIn,Events,Conditions,WindDirDegrees,DateUTC
6:05 AM,64.4,64.4,100,30.15,4.0,Calm,Calm,-,N/A,,Light Drizzle,0,2013-08-19 10:05:00
6:45 AM,64.4,64.4,100,30.15,5.0,Calm,Calm,-,N/A,,Overcast,0,2013-08-19 10:45:00
7:17 AM,64.4,64.4,100,30.15,9.0,Calm,Calm,-,N/A,,Overcast,0,2013-08-19 11:17:00
7:47 AM,64.4,64.4,100,30.15,4.0,Calm,Calm,-,N/A,,Light Drizzle,0,2013-08-19 11:47:00
8:12 AM,64.4,64.4,100,30.15,1.8,Calm,Calm,-,N/A,Rain,Light Rain,0,2013-08-19 12:12:00
8:47 AM,64.4,64.4,100,30.16,1.8,Calm,Calm,-,N/A,Rain,Light Rain,0,2013-08-19 12:47:00
9:33 AM,64.4,64.4,100,30.16,4.0,Calm,Calm,-,N/A,,Light Drizzle,0,2013-08-19 13:33:00
9:47 AM,64.4,64.4,100,30.16,5.0,Calm,Calm,-,N/A,,Overcast,0,2013-08-19 13:47:00
10:47 AM,68.0,66.2,94,30.15,10.0,Calm,Calm,-,N/A,,Overcast,0,2013-08-19 14:47:00
11:45 AM,68.0,68.0,100,30.16,10.0,Calm,Calm,-,N/A,,Overcast,0,2013-08-19 15:45:00
12:50 PM,71.6,68.0,88,30.15,10.0,West,5.8,-,N/A,,Overcast,260,2013-08-19 16:50:00
1:50 PM,73.4,66.2,78,30.13,7.0,WSW,5.8,-,N/A,,Mostly Cloudy,250,2013-08-19 17:50:00
2:50 PM,73.4,68.0,83,30.13,10.0,NW,4.6,-,N/A,,Mostly Cloudy,310,2013-08-19 18:50:00
3:50 PM,75.2,66.2,73,30.13,10.0,Calm,Calm,-,N/A,,Mostly Cloudy,0,2013-08-19 19:50:00
4:50 PM,75.2,66.2,73,30.12,10.0,Calm,Calm,-,N/A,,Mostly Cloudy,0,2013-08-19 20:50:00
5:50 PM,77.0,66.2,69,30.11,10.0,Calm,Calm,-,N/A,,Mostly Cloudy,0,2013-08-19 21:50:00
6:50 PM,77.0,66.2,69,30.10,15.0,Calm,Calm,-,N/A,,Partly Cloudy,0,2013-08-19 22:50:00
7:50 PM,73.4,68.0,83,30.11,10.0,Calm,Calm,-,N/A,,Partly Cloudy,0,2013-08-19 23:50:00
8:50 PM,69.8,68.0,94,30.11,15.0,Calm,Calm,-,N/A,,Scattered Clouds,0,2013-08-20 00:50:00
9:50 PM,66.2,66.2,100,30.14,15.0,Calm,Calm,-,N/A,,Scattered Clouds,0,2013-08-20 01:50:00